Skip Page Navigation
NASA JPL Caltech
NASA Logo - Jet Propulsion Laboratory + View the NASA Portal
+ Center for Near-Earth Object Studies
JPL Home Earth Solar System Stars & Galaxies Technology
JPL Solar System Dynamics
BODIES ORBITS EPHEMERIDES TOOLS PHYSICAL DATA DISCOVERY FAQ SITE MAP
IMPORTANT: The SSD Announcement email list is now available. Major changes are coming in the near future, including possible hostname and/or URL changes. To be notified of such changes, subscribe to this email list.

Please visit this page for more details.


JPL Small-Body Database Browser
Search: [ help ]  
47822 (2000 EX95)
Classification: Main-belt Asteroid          SPK-ID: 2047822
Ephemeris | Orbit Diagram | Orbital Elements | Mission Design | Physical Parameters | Discovery Circumstances ]

[ show orbit diagram ]
Orbital Elements at Epoch 2458600.5 (2019-Apr-27.0) TDB
Reference: JPL 18 (heliocentric ecliptic J2000)
 Element Value Uncertainty (1-sigma)   Units 
e .1993010859438737 4.172e-08  
a 2.625342217563605 9.2851e-09 au
q 2.102108662628881 1.0748e-07 au
i 5.54934567371635 3.8235e-06 deg
node 141.0895246664378 4.798e-05 deg
peri 209.7244758997286 4.9045e-05 deg
M 351.5755234869411 1.087e-05 deg
tp 2458636.859485867914
(2019-Jun-02.35948587)
4.698e-05 TDB
period 1553.736293544056
4.25
8.2427e-06
2.257e-08
d
yr
n .231699549978873 1.2292e-09 deg/d
Q 3.148575772498329 1.1136e-08 au
  Orbit Determination Parameters
   # obs. used (total)      1552  
   data-arc span      12440 days (34.06 yr)  
   first obs. used      1985-11-11  
   last obs. used      2019-12-03  
   planetary ephem.      DE431  
   SB-pert. ephem.      SB431-N16  
   condition code      0  
   norm. resid. RMS      .51214  
   source      ORB  
   producer      Otto Matic  
   solution date      2019-Dec-14 04:06:48  

Additional Information
 Earth MOID = 1.09715 au 
 Jupiter MOID = 2.27901 au 
 T_jup = 3.368 
[ show covariance matrix ]

Ephemeris | Orbit Diagram | Orbital Elements | Mission Design | Physical Parameters | Discovery Circumstances ]

Physical Parameter Table
Parameter Symbol Value Units Sigma Reference Notes
absolute magnitude H 14.4   n/a MPO359060  
diameter diameter 8.166 km 0.072 urn:nasa:pds:neowise_diameters_albedos::2.0[mainbelt] (http://adsabs.harvard.edu/abs/2011ApJ...741...68M)  
geometric albedo albedo 0.042   0.008 urn:nasa:pds:neowise_diameters_albedos::2.0[mainbelt] (http://adsabs.harvard.edu/abs/2011ApJ...741...68M)  

47822 (2000 EX95)          Discovered 2000-Mar-11 by LINEAR at Socorro
Reference: 20020921/Numbers.arcLast Updated: 2004-04-19

Alternate Designations
 2000 EX95 = 1985 VS4 = 1998 XV57 
Ephemeris | Orbit Diagram | Orbital Elements | Mission Design | Physical Parameters | Discovery Circumstances ]
ABOUT SSD CREDITS/AWARDS PRIVACY/COPYRIGHT GLOSSARY LINKS
FirstGov 2020-Jan-21 06:17 UT
(server date/time)  
NASA Home Page
Site Manager:   Ryan S. Park
Webmaster  Alan B. Chamberlin